{"data":{"norad_id":49106,"intl_designator":"2021-075AH","name":"ONEWEB-0323","alt_names":[],"object_type":"PAYLOAD","status":"ACTIVE","operator":null,"country":"UK","launch_date":"2021-08-21","launch_site_code":"TYMSC","launch_vehicle":null,"mission":null,"orbit_class":"UNKNOWN","rcs_meters":null,"size_class":null,"mass_kg":null,"dimensions":null,"purposes":["comms"],"wikipedia_slug":null,"has_3d_model":false,"image_url":null,"decayed_at":null,"tle_current":{"epoch":"2026-05-25T02:14:29.557824Z","epoch_age_seconds":67303,"freshness":"FRESH","line1":"1 49106U 21075AH  26145.09339766  .00000145  00000+0  36693-3 0  9995","line2":"2 49106  87.8961 355.2416 0002307  93.2325 266.9068 13.12443140231526","mean_motion":13.1244314,"eccentricity":0.0002307,"inclination_deg":87.8961,"raan_deg":355.2416,"arg_perigee_deg":93.2325,"mean_anomaly_deg":266.9068,"bstar":0.00036693,"rev_number":23152,"period_min":109.71903895204,"perigee_km":1211.9713091141,"apogee_km":1215.4741932033,"semimajor_km":7591.8597511587,"source":"CELESTRAK","updated_at":"2026-05-25T13:38:22.487770Z"}}}